Location: Nakusp
(50.2330°N, 117.8000°W)
Time: 07:09:31
(UTC-07:00)

Cosmos 1939 Rocket - Visible Passes

Search period start: 01 September 2015 00:00
Search period end: 11 September 2015 00:00
Orbit: 532 x 592 km, 97.6° (Epoch: 31 August)

Date Brightness Start Highest point End Pass type
(mag) Time Alt. Az. Time Alt. Az. Time Alt. Az.
01 Sep 2.9 20:53:45 16° SSE 20:56:36 56° ENE 21:00:25 10° N visible
01 Sep 5.5 22:29:44 10° SW 22:32:03 15° W 22:34:14 10° NW visible
02 Sep 2.9 20:53:24 17° SE 20:56:09 55° ENE 20:59:58 10° N visible
02 Sep 5.4 22:29:23 10° SW 22:31:35 15° W 22:33:49 10° NW visible
03 Sep 2.9 20:53:04 18° SE 20:55:42 55° ENE 20:59:31 10° N visible
03 Sep 5.4 22:29:03 11° WSW 22:31:07 15° W 22:33:23 10° NW visible
04 Sep 2.9 20:52:43 19° SE 20:55:14 54° ENE 20:59:03 10° N visible
04 Sep 5.4 22:28:42 12° WSW 22:30:39 15° W 22:32:56 10° NW visible
05 Sep 2.9 20:52:23 21° SE 20:54:46 54° ENE 20:58:35 10° N visible
05 Sep 5.3 22:28:22 12° WSW 22:30:11 15° W 22:32:29 10° NW visible
06 Sep 2.9 20:52:02 22° SE 20:54:18 53° ENE 20:58:07 10° N visible
06 Sep 5.3 22:28:01 13° WSW 22:29:43 16° W 22:32:03 10° NW visible
07 Sep 3.0 20:51:41 23° SE 20:53:50 53° ENE 20:57:39 10° N visible
07 Sep 5.3 22:27:40 13° WSW 22:29:14 16° W 22:31:37 10° NW visible
08 Sep 3.0 20:51:20 25° SE 20:53:22 52° ENE 20:57:11 10° N visible
08 Sep 5.3 22:27:19 14° WSW 22:28:45 16° W 22:31:10 10° NW visible
09 Sep 3.0 20:50:59 26° SE 20:52:54 51° ENE 20:56:43 10° N visible
09 Sep 5.2 22:26:58 14° WSW 22:28:17 16° W 22:30:44 10° NW visible
10 Sep 3.0 20:50:38 27° SE 20:52:25 51° ENE 20:56:15 10° N visible
10 Sep 5.2 22:26:37 15° WSW 22:27:47 16° W 22:30:17 10° NW visible
